Warning: Javascript must be enabled to use all the features on this page!


Page Loading - Please Wait...

* We've detected you're using a mobile device. Find our Next Generation Station Page here.
Click to hideNews Bulletins

Peak Streamflow for the Nation

USGS 07142300 RATTLESNAKE C NR MACKSVILLE, KS

Stafford County, Kansas
Hydrologic Unit Code 11030009
Latitude  37°52'17.53", Longitude  98°52'32.90" NAD83
Drainage area 697  square miles
Contributing drainage area 426  square miles
Gage datum 1,964.28 feet above NAVD88
Output formats
Table
Graph
Tab-separated file
peakfq (watstore) format
Reselect output format
Water
Year
Date Gage
Height
(feet)
Stream-
flow
(cfs)
1960 1960-03-20 8.90 668
1961 1961-08-19 6.27 157
1962 1962-09-19 9.04 1,030
1963 1963-09-03 9.60 1,700
1964 1963-10-24 4.49 55.0
1965 1965-06-13 4.82 77.0
1966 1966-07-21 4.55 52.0
1967 1967-06-26 7.49 368
1968 1967-10-09 7.32 354
1969 1969-09-18 8.93 648
1970 1970-04-19 5.33 74.0
1971 1971-07-05 6.78 178
1972 1972-08-27 8.44 383
1973 1973-09-26 11.02 17,700
1974 1973-10-12 9.23 2,360
1975 1975-06-25 9.70 2,800
1976 1976-04-30 8.32 545
1977 1977-05-24 9.71 3,220
1978 1978-05-27 9.33 1,760
1979 1979-07-28 7.19 373
1980 1980-06-22 7.14 363
1981 1981-06-02 4.81 109
1982 1982-06-24 5.29 148
1983 1983-06-13 7.68 518
1984 1984-05-03 3.77 42.0
1985 1985-06-14 5.66 143
1986 1985-10-13 6.78 292
1987 1987-03-24 9.23 1,450
1988 1988-07-22 5.09 145
1989 1989-08-16 7.29 462
1990 1990-05-30 4.69 114
1991 1991-06-01 4.30 86.0
1992 1992-07-01 7.75 341
1993 1993-07-16 10.02 3,520
1994 1994-02-06 3.21 21.0
1995 1995-05-23 9.37 1,410
1996 1996-09-21 9.03 1,200
1997 1996-10-08 7.74 607
1998 1998-04-09 5.20 151
1999 1999-07-05 4.33 59.0
2000 2000-03-26 5.72 218
2001 2001-05-07 7.50 385
2002 2002-08-17 3.84 36.0
2003 2003-03-19 3.82 20.0
2004 2004-03-27 3.30 7.20
2005 2005-05-13 4.78 48.0
2006 2006-05-09 3.65 20.0
2007 2007-05-09 9.00 1,350
2008 2008-05-09 5.22 121
2009 2009-05-09 5.16 115
2010 2010-06-17 7.75 507
2011 2010-11-13 3.73 23.0
2012 2012-03-22 3.24 7.60
2013 2013-05-30 4.38 27.0
2014 2014-07-06 5.27 26.0
2015 2015-05-29 5.25 52.0
2016 2016-05-04 6.09 99.0
2017 2017-05-06 5.66 68.0
2018 2018-09-09 5.66 60.8
2019 2019-05-24 8.12 435
2020 2020-07-27 5.20 75.9
2021 2021-03-23   26.4
2022 2022-06-07   16.3
2023 2023-06-02   0.02